| time (UTC) | temp F | wind direction | speed MPH | gust MPH | rain 1hr in | rain 24hr in | rain mn in | humidity % | barometer mb |
| 20260901222759 | 76 | 212 | 0.0 | 5.0 | 0.00 | 0.00 | 0.00 | 34 | 1011.8 |
| 20260901222547 | 76 | 205 | 1.0 | 7.0 | 0.00 | 0.00 | 0.00 | 35 | 1011.8 |
| 20260901222340 | 77 | 204 | 1.0 | 7.0 | 0.00 | 0.00 | 0.00 | 33 | 1011.8 |
| 20260901222131 | 77 | 202 | 2.0 | 7.0 | 0.00 | 0.00 | 0.00 | 32 | 1011.8 |
| 20260901221921 | 77 | 277 | 2.0 | 7.0 | 0.00 | 0.00 | 0.00 | 33 | 1011.8 |
| 20260901221526 | 77 | 215 | 3.0 | 7.0 | 0.00 | 0.00 | 0.00 | 33 | 1012.0 |
| 20260901221323 | 77 | 227 | 2.0 | 6.0 | 0.00 | 0.00 | 0.00 | 33 | 1011.9 |
| 20260901221115 | 77 | 215 | 2.0 | 6.0 | 0.00 | 0.00 | 0.00 | 33 | 1011.8 |
| 20260901220903 | 77 | 225 | 2.0 | 6.0 | 0.00 | 0.00 | 0.00 | 33 | 1011.9 |
| 20260901220515 | 77 | 217 | 2.0 | 7.0 | 0.00 | 0.00 | 0.00 | 33 | 1012.0 |
| 20260901220313 | 77 | 227 | 2.0 | 7.0 | 0.00 | 0.00 | 0.00 | 33 | 1012.0 |
| 20260901220105 | 77 | 228 | 2.0 | 7.0 | 0.00 | 0.00 | 0.00 | 33 | 1012.0 |
| 20260901215853 | 77 | 209 | 2.0 | 7.0 | 0.00 | 0.00 | 0.00 | 31 | 1012.1 |
| 20260901215651 | 77 | 215 | 1.0 | 7.0 | 0.00 | 0.00 | 0.00 | 32 | 1012.0 |
| 20260901215444 | 77 | 228 | 1.0 | 8.0 | 0.00 | 0.00 | 0.00 | 32 | 1012.0 |
| 20260901215052 | 76 | 221 | 1.0 | 8.0 | 0.00 | 0.00 | 0.00 | 32 | 1012.1 |
| 20260901214704 | 76 | 215 | 1.0 | 8.0 | 0.00 | 0.00 | 0.00 | 37 | 1012.1 |
| 20260901214457 | 76 | 214 | 2.0 | 8.0 | 0.00 | 0.00 | 0.00 | 35 | 1012.0 |
| 20260901214254 | 77 | 142 | 2.0 | 8.0 | 0.00 | 0.00 | 0.00 | 32 | 1012.1 |
| 20260901214051 | 77 | 212 | 1.0 | 8.0 | 0.00 | 0.00 | 0.00 | 32 | 1012.1 |
| 20260901213654 | 76 | 214 | 1.0 | 8.0 | 0.00 | 0.00 | 0.00 | 33 | 1012.2 |
| 20260901213444 | 76 | 222 | 0.0 | 7.0 | 0.00 | 0.00 | 0.00 | 35 | 1012.1 |
| 20260901213054 | 76 | 85 | 1.0 | 6.0 | 0.00 | 0.00 | 0.00 | 36 | 1012.2 |
| 20260901212702 | 76 | 209 | 1.0 | 6.0 | 0.00 | 0.00 | 0.00 | 36 | 1012.2 |
| 20260901212457 | 76 | 209 | 1.0 | 6.0 | 0.00 | 0.00 | 0.00 | 33 | 1012.2 |
| 20260901212244 | 76 | 229 | 1.0 | 6.0 | 0.00 | 0.00 | 0.00 | 33 | 1012.2 |
| 20260901212038 | 76 | 224 | 1.0 | 6.0 | 0.00 | 0.00 | 0.00 | 36 | 1012.2 |
| 20260901211832 | 75 | 257 | 2.0 | 8.0 | 0.00 | 0.00 | 0.00 | 32 | 1012.2 |
| 20260901211436 | 76 | 207 | 1.0 | 8.0 | 0.00 | 0.00 | 0.00 | 33 | 1012.2 |
| 20260901211234 | 76 | 229 | 2.0 | 8.0 | 0.00 | 0.00 | 0.00 | 31 | 1012.1 |
| 20260901211033 | 76 | 229 | 1.0 | 8.0 | 0.00 | 0.00 | 0.00 | 33 | 1012.1 |
| 20260901210829 | 75 | 218 | 1.0 | 12.0 | 0.00 | 0.00 | 0.00 | 33 | 1012.2 |
| 20260901210619 | 75 | 217 | 1.0 | 12.0 | 0.00 | 0.00 | 0.00 | 32 | 1012.2 |
| 20260901210409 | 75 | 215 | 0.0 | 12.0 | 0.00 | 0.00 | 0.00 | 38 | 1012.3 |
| 20260901210202 | 75 | 179 | 1.0 | 12.0 | 0.00 | 0.00 | 0.00 | 39 | 1012.2 |
| 20260901205810 | 76 | 244 | 2.0 | 12.0 | 0.00 | 0.00 | 0.00 | 37 | 1012.2 |
| 20260901205559 | 76 | 244 | 2.0 | 12.0 | 0.00 | 0.00 | 0.00 | 41 | 1012.3 |
| 20260901205354 | 76 | 262 | 2.0 | 12.0 | 0.00 | 0.00 | 0.00 | 34 | 1012.3 |
| 20260901205146 | 76 | 191 | 2.0 | 12.0 | 0.00 | 0.00 | 0.00 | 37 | 1012.3 |
| 20260901204940 | 77 | 232 | 1.0 | 12.0 | 0.00 | 0.00 | 0.00 | 32 | 1012.3 |
| 20260901204730 | 77 | 210 | 1.0 | 6.0 | 0.00 | 0.00 | 0.00 | 32 | 1012.3 |
| 20260901204526 | 77 | 217 | 1.0 | 6.0 | 0.00 | 0.00 | 0.00 | 33 | 1012.3 |
| 20260901204313 | 76 | 217 | 1.0 | 7.0 | 0.00 | 0.00 | 0.00 | 32 | 1012.2 |
| 20260901204104 | 76 | 20 | 1.0 | 7.0 | 0.00 | 0.00 | 0.00 | 37 | 1012.3 |
| 20260901203856 | 76 | 48 | 1.0 | 7.0 | 0.00 | 0.00 | 0.00 | 37 | 1012.3 |
| 20260901203652 | 76 | 225 | 1.0 | 7.0 | 0.00 | 0.00 | 0.00 | 35 | 1012.3 |
| 20260901203113 | 76 | 210 | 1.0 | 8.0 | 0.00 | 0.00 | 0.00 | 36 | 1012.2 |
| 20260901202909 | 76 | 212 | 1.0 | 8.0 | 0.00 | 0.00 | 0.00 | 35 | 1012.3 |
| 20260901202657 | 76 | 249 | 1.0 | 8.0 | 0.00 | 0.00 | 0.00 | 37 | 1012.3 |
| 20260901202452 | 76 | 219 | 1.0 | 8.0 | 0.00 | 0.00 | 0.00 | 37 | 1012.2 |
| 20260901202239 | 75 | 218 | 1.0 | 8.0 | 0.00 | 0.00 | 0.00 | 37 | 1012.2 |
| 20260901201849 | 75 | 249 | 1.0 | 8.0 | 0.00 | 0.00 | 0.00 | 38 | 1012.3 |
| 20260901201636 | 75 | 198 | 1.0 | 8.0 | 0.00 | 0.00 | 0.00 | 38 | 1012.3 |
| 20260901201424 | 75 | 198 | 2.0 | 8.0 | 0.00 | 0.00 | 0.00 | 37 | 1012.4 |
| 20260901201217 | 75 | 219 | 1.0 | 6.0 | 0.00 | 0.00 | 0.00 | 37 | 1012.3 |
| 20260901201004 | 74 | 281 | 2.0 | 6.0 | 0.00 | 0.00 | 0.00 | 38 | 1012.4 |
| 20260901200756 | 74 | 207 | 2.0 | 6.0 | 0.00 | 0.00 | 0.00 | 39 | 1012.4 |
| 20260901200544 | 74 | 209 | 2.0 | 8.0 | 0.00 | 0.00 | 0.00 | 39 | 1012.4 |
| 20260901200339 | 74 | 213 | 2.0 | 8.0 | 0.00 | 0.00 | 0.00 | 39 | 1012.3 |
| 20260901195943 | 74 | 217 | 2.0 | 8.0 | 0.00 | 0.00 | 0.00 | 39 | 1012.4 |
| 20260901195735 | 74 | 202 | 2.0 | 8.0 | 0.00 | 0.00 | 0.00 | 39 | 1012.4 |
| 20260901195534 | 74 | 227 | 2.0 | 8.0 | 0.00 | 0.00 | 0.00 | 38 | 1012.4 |
| 20260901195325 | 74 | 211 | 1.0 | 8.0 | 0.00 | 0.00 | 0.00 | 40 | 1012.4 |
| 20260901195113 | 74 | 231 | 1.0 | 8.0 | 0.00 | 0.00 | 0.00 | 39 | 1012.4 |
| 20260901194904 | 74 | 215 | 2.0 | 8.0 | 0.00 | 0.00 | 0.00 | 41 | 1012.4 |
| 20260901194658 | 74 | 207 | 1.0 | 6.0 | 0.00 | 0.00 | 0.00 | 41 | 1012.4 |
| 20260901194454 | 73 | 242 | 2.0 | 6.0 | 0.00 | 0.00 | 0.00 | 42 | 1012.5 |
| 20260901194246 | 73 | 221 | 2.0 | 6.0 | 0.00 | 0.00 | 0.00 | 41 | 1012.5 |
| 20260901194039 | 73 | 208 | 2.0 | 6.0 | 0.00 | 0.00 | 0.00 | 40 | 1012.4 |
| 20260901193832 | 73 | 212 | 1.0 | 6.0 | 0.00 | 0.00 | 0.00 | 42 | 1012.5 |
| 20260901193621 | 73 | 207 | 2.0 | 6.0 | 0.00 | 0.00 | 0.00 | 40 | 1012.4 |
| 20260901193410 | 73 | 211 | 1.0 | 6.0 | 0.00 | 0.00 | 0.00 | 41 | 1012.4 |
| 20260901193208 | 73 | 221 | 1.0 | 6.0 | 0.00 | 0.00 | 0.00 | 41 | 1012.5 |
| 20260901192957 | 73 | 209 | 1.0 | 6.0 | 0.00 | 0.00 | 0.00 | 40 | 1012.5 |
| 20260901192751 | 73 | 209 | 1.0 | 8.0 | 0.00 | 0.00 | 0.00 | 40 | 1012.5 |
| 20260901192543 | 73 | 209 | 1.0 | 8.0 | 0.00 | 0.00 | 0.00 | 40 | 1012.5 |
| 20260901192341 | 73 | 209 | 1.0 | 8.0 | 0.00 | 0.00 | 0.00 | 41 | 1012.5 |
| 20260901192129 | 73 | 208 | 1.0 | 8.0 | 0.00 | 0.00 | 0.00 | 40 | 1012.5 |
| 20260901191922 | 73 | 208 | 1.0 | 8.0 | 0.00 | 0.00 | 0.00 | 42 | 1012.5 |
| 20260901191719 | 73 | 208 | 1.0 | 7.0 | 0.00 | 0.00 | 0.00 | 42 | 1012.5 |
| 20260901191514 | 73 | 209 | 2.0 | 7.0 | 0.00 | 0.00 | 0.00 | 43 | 1012.5 |
| 20260901191307 | 73 | 144 | 2.0 | 7.0 | 0.00 | 0.00 | 0.00 | 43 | 1012.5 |
| 20260901191102 | 73 | 211 | 2.0 | 7.0 | 0.00 | 0.00 | 0.00 | 42 | 1012.4 |
| 20260901190850 | 73 | 224 | 2.0 | 7.0 | 0.00 | 0.00 | 0.00 | 41 | 1012.5 |
| 20260901190645 | 73 | 231 | 1.0 | 6.0 | 0.00 | 0.00 | 0.00 | 41 | 1012.4 |
| 20260901190250 | 73 | 206 | 1.0 | 5.0 | 0.00 | 0.00 | 0.00 | 43 | 1012.4 |
| 20260901190040 | 73 | 206 | 0.0 | 5.0 | 0.00 | 0.00 | 0.00 | 42 | 1012.5 |
| 20260901185836 | 72 | 194 | 0.0 | 5.0 | 0.00 | 0.00 | 0.00 | 42 | 1012.5 |
| 20260901185630 | 72 | 209 | 0.0 | 5.0 | 0.00 | 0.00 | 0.00 | 43 | 1012.5 |
| 20260901185423 | 72 | 224 | 0.0 | 3.0 | 0.00 | 0.00 | 0.00 | 43 | 1012.6 |
| 20260901185215 | 72 | 212 | 1.0 | 3.0 | 0.00 | 0.00 | 0.00 | 41 | 1012.5 |
| 20260901184824 | 72 | 211 | 1.0 | 8.0 | 0.00 | 0.00 | 0.00 | 43 | 1012.5 |
| 20260901184614 | 72 | 212 | 1.0 | 8.0 | 0.00 | 0.00 | 0.00 | 44 | 1012.5 |
| 20260901184409 | 72 | 212 | 1.0 | 8.0 | 0.00 | 0.00 | 0.00 | 43 | 1012.5 |
| 20260901184207 | 71 | 218 | 1.0 | 6.0 | 0.00 | 0.00 | 0.00 | 43 | 1012.5 |
| 20260901183957 | 71 | 218 | 0.0 | 6.0 | 0.00 | 0.00 | 0.00 | 43 | 1012.5 |
| 20260901183749 | 70 | 216 | 0.0 | 6.0 | 0.00 | 0.00 | 0.00 | 44 | 1012.5 |
| 20260901183214 | 69 | 193 | 0.0 | 6.0 | 0.00 | 0.00 | 0.00 | 44 | 1012.5 |
| 20260901183008 | 68 | 175 | 0.0 | 1.0 | 0.00 | 0.00 | 0.00 | 44 | 1012.5 |
| 20260901182803 | 68 | 221 | 1.0 | 0.0 | 0.00 | 0.00 | 0.00 | 44 | 1012.4 |
| 20260901182557 | 68 | 221 | 1.0 | 6.0 | 0.00 | 0.00 | 0.00 | 44 | 1012.4 |
| 20260901182345 | 68 | 221 | 1.0 | 6.0 | 0.00 | 0.00 | 0.00 | 43 | 1012.5 |
| 20260901182133 | 68 | 227 | 1.0 | 6.0 | 0.00 | 0.00 | 0.00 | 44 | 1012.5 |
| 20260901181929 | 68 | 227 | 1.0 | 6.0 | 0.00 | 0.00 | 0.00 | 44 | 1012.4 |
| 20260901181718 | 68 | 223 | 1.0 | 5.0 | 0.00 | 0.00 | 0.00 | 44 | 1012.4 |
| 20260901181509 | 68 | 223 | 1.0 | 5.0 | 0.00 | 0.00 | 0.00 | 44 | 1012.4 |
| 20260901181307 | 68 | 209 | 1.0 | 5.0 | 0.00 | 0.00 | 0.00 | 44 | 1012.4 |
| 20260901181057 | 67 | 221 | 1.0 | 5.0 | 0.00 | 0.00 | 0.00 | 43 | 1012.4 |
| 20260901180701 | 67 | 215 | 1.0 | 5.0 | 0.00 | 0.00 | 0.00 | 45 | 1012.5 |
| 20260901180314 | 67 | 215 | 1.0 | 6.0 | 0.00 | 0.00 | 0.00 | 45 | 1012.5 |
| 20260901175857 | 67 | 215 | 1.0 | 6.0 | 0.00 | 0.00 | 0.00 | 45 | 1012.5 |
| 20260901175648 | 67 | 214 | 1.0 | 6.0 | 0.00 | 0.00 | 0.00 | 46 | 1012.5 |
| 20260901175445 | 67 | 214 | 1.0 | 0.0 | 0.00 | 0.00 | 0.00 | 46 | 1012.5 |
| 20260901175239 | 67 | 214 | 1.0 | 6.0 | 0.00 | 0.00 | 0.00 | 46 | 1012.6 |
| 20260901175029 | 66 | 211 | 1.0 | 6.0 | 0.00 | 0.00 | 0.00 | 46 | 1012.6 |
| 20260901174820 | 66 | 213 | 1.0 | 6.0 | 0.00 | 0.00 | 0.00 | 46 | 1012.5 |
| 20260901174609 | 66 | 213 | 1.0 | 6.0 | 0.00 | 0.00 | 0.00 | 46 | 1012.6 |
| 20260901174358 | 66 | 211 | 1.0 | 1.0 | 0.00 | 0.00 | 0.00 | 47 | 1012.6 |
| 20260901174155 | 66 | 211 | 1.0 | 6.0 | 0.00 | 0.00 | 0.00 | 47 | 1012.5 |
| 20260901173952 | 66 | 213 | 1.0 | 9.0 | 0.00 | 0.00 | 0.00 | 48 | 1012.4 |
| 20260901173739 | 65 | 204 | 1.0 | 9.0 | 0.00 | 0.00 | 0.00 | 49 | 1012.4 |
| 20260901173525 | 65 | 211 | 1.0 | 9.0 | 0.00 | 0.00 | 0.00 | 48 | 1012.5 |
| 20260901173310 | 65 | 211 | 1.0 | 9.0 | 0.00 | 0.00 | 0.00 | 49 | 1012.5 |
| 20260901173057 | 65 | 215 | 1.0 | 9.0 | 0.00 | 0.00 | 0.00 | 49 | 1012.4 |
| 20260901172850 | 65 | 239 | 1.0 | 9.0 | 0.00 | 0.00 | 0.00 | 50 | 1012.4 |
| 20260901172647 | 65 | 244 | 2.0 | 9.0 | 0.00 | 0.00 | 0.00 | 49 | 1012.3 |
| 20260901172257 | 64 | 242 | 1.0 | 9.0 | 0.00 | 0.00 | 0.00 | 49 | 1012.5 |
| 20260901172053 | 64 | 194 | 1.0 | 5.0 | 0.00 | 0.00 | 0.00 | 50 | 1012.4 |
| 20260901171847 | 64 | 237 | 1.0 | 5.0 | 0.00 | 0.00 | 0.00 | 50 | 1012.3 |
| 20260901171635 | 64 | 223 | 1.0 | 5.0 | 0.00 | 0.00 | 0.00 | 51 | 1012.3 |
| 20260901171423 | 64 | 223 | 1.0 | 5.0 | 0.00 | 0.00 | 0.00 | 52 | 1012.3 |
| 20260901171220 | 63 | 223 | 1.0 | 5.0 | 0.00 | 0.00 | 0.00 | 51 | 1012.3 |
| 20260901171018 | 63 | 223 | 1.0 | 5.0 | 0.00 | 0.00 | 0.00 | 51 | 1012.3 |
| 20260901170808 | 63 | 226 | 1.0 | 4.0 | 0.00 | 0.00 | 0.00 | 51 | 1012.3 |
| 20260901170602 | 63 | 225 | 0.0 | 4.0 | 0.00 | 0.00 | 0.00 | 51 | 1012.3 |
| 20260901170351 | 63 | 227 | 0.0 | 3.0 | 0.00 | 0.00 | 0.00 | 52 | 1012.3 |
| 20260901170141 | 63 | 227 | 0.0 | 3.0 | 0.00 | 0.00 | 0.00 | 52 | 1012.2 |
| 20260901165934 | 62 | 227 | 0.0 | 0.0 | 0.00 | 0.00 | 0.00 | 51 | 1012.2 |
| 20260901165723 | 62 | 227 | 1.0 | 0.0 | 0.00 | 0.00 | 0.00 | 52 | 1012.1 |
| 20260901165522 | 62 | 227 | 1.0 | 5.0 | 0.00 | 0.00 | 0.00 | 51 | 1012.1 |
| 20260901164949 | 61 | 227 | 1.0 | 5.0 | 0.00 | 0.00 | 0.00 | 53 | 1012.1 |
| 20260901164746 | 61 | 227 | 0.0 | 5.0 | 0.00 | 0.00 | 0.00 | 54 | 1012.1 |
| 20260901164533 | 61 | 233 | 0.0 | 4.0 | 0.00 | 0.00 | 0.00 | 55 | 1012.1 |
| 20260901164325 | 61 | 233 | 0.0 | 4.0 | 0.00 | 0.00 | 0.00 | 55 | 1012.1 |
| 20260901164118 | 60 | 234 | 0.0 | 4.0 | 0.00 | 0.00 | 0.00 | 55 | 1012.1 |
| 20260901163914 | 60 | 233 | 0.0 | 3.0 | 0.00 | 0.00 | 0.00 | 56 | 1012.1 |
| 20260901163708 | 60 | 233 | 0.0 | 3.0 | 0.00 | 0.00 | 0.00 | 58 | 1012.1 |
| 20260901163504 | 60 | 233 | 0.0 | 3.0 | 0.00 | 0.00 | 0.00 | 59 | 1012.1 |
| 20260901163258 | 59 | 234 | 0.0 | 3.0 | 0.00 | 0.00 | 0.00 | 59 | 1012.1 |
| 20260901163053 | 59 | 234 | 0.0 | 1.0 | 0.00 | 0.00 | 0.00 | 60 | 1012.1 |
| 20260901162849 | 59 | 234 | 1.0 | 6.0 | 0.00 | 0.00 | 0.00 | 60 | 1012.1 |
| 20260901162646 | 59 | 234 | 1.0 | 6.0 | 0.00 | 0.00 | 0.00 | 61 | 1012.0 |
| 20260901162257 | 58 | 215 | 1.0 | 6.0 | 0.00 | 0.00 | 0.00 | 62 | 1012.0 |
| 20260901162051 | 58 | 215 | 1.0 | 6.0 | 0.00 | 0.00 | 0.00 | 63 | 1011.9 |
| 20260901161653 | 57 | 208 | 0.0 | 4.0 | 0.00 | 0.00 | 0.00 | 65 | 1012.0 |
| 20260901161301 | 57 | 207 | 0.0 | 4.0 | 0.00 | 0.00 | 0.00 | 65 | 1011.9 |
| 20260901161054 | 57 | 209 | 0.0 | 3.0 | 0.00 | 0.00 | 0.00 | 66 | 1011.9 |
| 20260901160847 | 56 | 209 | 0.0 | 0.0 | 0.00 | 0.00 | 0.00 | 66 | 1011.9 |
| 20260901160641 | 56 | 209 | 0.0 | 4.0 | 0.00 | 0.00 | 0.00 | 66 | 1011.8 |
| 20260901160434 | 56 | 209 | 0.0 | 2.0 | 0.00 | 0.00 | 0.00 | 66 | 1011.8 |
| 20260901160227 | 56 | 209 | 0.0 | 3.0 | 0.00 | 0.00 | 0.00 | 67 | 1011.8 |
| 20260901160023 | 56 | 209 | 0.0 | 3.0 | 0.00 | 0.00 | 0.00 | 67 | 1011.8 |
| 20260901155815 | 55 | 209 | 0.0 | 3.0 | 0.00 | 0.00 | 0.00 | 67 | 1011.8 |
| 20260901155603 | 55 | 209 | 0.0 | 3.0 | 0.00 | 0.00 | 0.00 | 68 | 1011.8 |
| 20260901155356 | 55 | 209 | 0.0 | 3.0 | 0.00 | 0.00 | 0.00 | 69 | 1011.7 |
| 20260901155150 | 55 | 209 | 0.0 | 3.0 | 0.00 | 0.00 | 0.00 | 69 | 1011.7 |
| 20260901154942 | 54 | 209 | 0.0 | 3.0 | 0.00 | 0.00 | 0.00 | 70 | 1011.7 |
| 20260901154740 | 54 | 209 | 0.0 | 3.0 | 0.00 | 0.00 | 0.00 | 70 | 1011.8 |
| 20260901154537 | 54 | 209 | 0.0 | 3.0 | 0.00 | 0.00 | 0.00 | 71 | 1011.8 |
| 20260901154143 | 54 | 204 | 0.0 | 2.0 | 0.00 | 0.00 | 0.00 | 71 | 1011.7 |
| 20260901153936 | 54 | 204 | 0.0 | 0.0 | 0.00 | 0.00 | 0.00 | 72 | 1011.8 |
| 20260901153725 | 54 | 204 | 0.0 | 0.0 | 0.00 | 0.00 | 0.00 | 72 | 1011.7 |
| 20260901153523 | 53 | 204 | 0.0 | 0.0 | 0.00 | 0.00 | 0.00 | 72 | 1011.7 |
| 20260901153319 | 53 | 204 | 0.0 | 0.0 | 0.00 | 0.00 | 0.00 | 72 | 1011.7 |
| 20260901153107 | 53 | 204 | 0.0 | 0.0 | 0.00 | 0.00 | 0.00 | 72 | 1011.7 |
| 20260901152855 | 53 | 204 | 0.0 | 0.0 | 0.00 | 0.00 | 0.00 | 72 | 1011.7 |
| 20260901152504 | 53 | 204 | 0.0 | 0.0 | 0.00 | 0.00 | 0.00 | 71 | 1011.7 |
| 20260901152305 | 53 | 204 | 0.0 | 1.0 | 0.00 | 0.00 | 0.00 | 71 | 1011.6 |
| 20260901152052 | 53 | 204 | 0.0 | 0.0 | 0.00 | 0.00 | 0.00 | 71 | 1011.5 |
| 20260901151517 | 52 | 204 | 0.0 | 0.0 | 0.00 | 0.00 | 0.00 | 70 | 1011.4 |
| 20260901151314 | 52 | 204 | 0.0 | 0.0 | 0.00 | 0.00 | 0.00 | 70 | 1011.4 |
| 20260901150923 | 52 | 204 | 0.0 | 0.0 | 0.00 | 0.00 | 0.00 | 70 | 1011.4 |
| 20260901150714 | 52 | 204 | 0.0 | 0.0 | 0.00 | 0.00 | 0.00 | 70 | 1011.3 |
| 20260901150510 | 52 | 204 | 0.0 | 0.0 | 0.00 | 0.00 | 0.00 | 70 | 1011.3 |
| 20260901150308 | 52 | 204 | 0.0 | 0.0 | 0.00 | 0.00 | 0.00 | 70 | 1011.3 |
| 20260901150059 | 52 | 204 | 0.0 | 0.0 | 0.00 | 0.00 | 0.00 | 70 | 1011.3 |
| 20260901145857 | 52 | 204 | 0.0 | 0.0 | 0.00 | 0.00 | 0.00 | 69 | 1011.3 |
| 20260901145650 | 52 | 204 | 0.0 | 0.0 | 0.00 | 0.00 | 0.00 | 69 | 1011.3 |
| 20260901145442 | 52 | 204 | 0.0 | 0.0 | 0.00 | 0.00 | 0.00 | 69 | 1011.3 |
| 20260901145240 | 52 | 204 | 0.0 | 0.0 | 0.00 | 0.00 | 0.00 | 69 | 1011.2 |
| 20260901144850 | 52 | 204 | 0.0 | 0.0 | 0.00 | 0.00 | 0.00 | 69 | 1011.1 |
| 20260901144318 | 52 | 204 | 0.0 | 0.0 | 0.00 | 0.00 | 0.00 | 69 | 1011.0 |
| 20260901144116 | 52 | 204 | 0.0 | 0.0 | 0.00 | 0.00 | 0.00 | 69 | 1011.1 |
| 20260901143911 | 52 | 204 | 0.0 | 0.0 | 0.00 | 0.00 | 0.00 | 69 | 1011.1 |
| 20260901143700 | 52 | 204 | 0.0 | 0.0 | 0.00 | 0.00 | 0.00 | 69 | 1011.0 |
| 20260901143449 | 52 | 204 | 0.0 | 0.0 | 0.00 | 0.00 | 0.00 | 68 | 1011.0 |
| 20260901143053 | 52 | 204 | 0.0 | 0.0 | 0.00 | 0.00 | 0.00 | 68 | 1011.0 |
| 20260901142700 | 52 | 204 | 0.0 | 0.0 | 0.00 | 0.00 | 0.00 | 68 | 1011.0 |
| 20260901142448 | 52 | 204 | 0.0 | 0.0 | 0.00 | 0.00 | 0.00 | 68 | 1011.0 |
| 20260901142236 | 52 | 204 | 0.0 | 0.0 | 0.00 | 0.00 | 0.00 | 68 | 1011.0 |
| 20260901142022 | 52 | 204 | 0.0 | 0.0 | 0.00 | 0.00 | 0.00 | 68 | 1011.0 |
| 20260901141820 | 52 | 204 | 0.0 | 0.0 | 0.00 | 0.00 | 0.00 | 67 | 1011.0 |
| 20260901141428 | 52 | 204 | 0.0 | 0.0 | 0.00 | 0.00 | 0.00 | 67 | 1011.0 |
| 20260901141225 | 52 | 204 | 0.0 | 0.0 | 0.00 | 0.00 | 0.00 | 67 | 1010.9 |
| 20260901141015 | 52 | 204 | 0.0 | 0.0 | 0.00 | 0.00 | 0.00 | 67 | 1010.9 |
| 20260901140808 | 52 | 204 | 0.0 | 0.0 | 0.00 | 0.00 | 0.00 | 67 | 1010.9 |
| 20260901140556 | 53 | 204 | 0.0 | 0.0 | 0.00 | 0.00 | 0.00 | 67 | 1010.9 |
| 20260901140353 | 53 | 204 | 0.0 | 0.0 | 0.00 | 0.00 | 0.00 | 67 | 1010.9 |
| 20260901140150 | 53 | 204 | 0.0 | 0.0 | 0.00 | 0.00 | 0.00 | 67 | 1010.9 |
| 20260901135800 | 53 | 204 | 0.0 | 0.0 | 0.00 | 0.00 | 0.00 | 67 | 1011.0 |
| 20260901135551 | 53 | 204 | 0.0 | 0.0 | 0.00 | 0.00 | 0.00 | 67 | 1011.0 |
| 20260901135342 | 53 | 204 | 0.0 | 0.0 | 0.00 | 0.00 | 0.00 | 66 | 1011.0 |
| 20260901135134 | 53 | 204 | 0.0 | 0.0 | 0.00 | 0.00 | 0.00 | 66 | 1011.0 |
| 20260901134745 | 53 | 204 | 0.0 | 0.0 | 0.00 | 0.00 | 0.00 | 66 | 1010.9 |
| 20260901134539 | 53 | 204 | 0.0 | 0.0 | 0.00 | 0.00 | 0.00 | 66 | 1010.9 |
| 20260901134332 | 53 | 204 | 0.0 | 0.0 | 0.00 | 0.00 | 0.00 | 66 | 1010.8 |
| 20260901134127 | 53 | 204 | 0.0 | 0.0 | 0.00 | 0.00 | 0.00 | 66 | 1010.8 |
| 20260901133915 | 53 | 204 | 0.0 | 0.0 | 0.00 | 0.00 | 0.00 | 66 | 1010.7 |
| 20260901133703 | 53 | 204 | 0.0 | 0.0 | 0.00 | 0.00 | 0.00 | 66 | 1010.6 |
| 20260901133456 | 53 | 204 | 0.0 | 0.0 | 0.00 | 0.00 | 0.00 | 66 | 1010.6 |
| 20260901133103 | 53 | 204 | 0.0 | 0.0 | 0.00 | 0.00 | 0.00 | 66 | 1010.6 |
| 20260901132901 | 53 | 204 | 0.0 | 0.0 | 0.00 | 0.00 | 0.00 | 66 | 1010.6 |
| 20260901132654 | 53 | 204 | 0.0 | 0.0 | 0.00 | 0.00 | 0.00 | 66 | 1010.6 |
| 20260901132443 | 53 | 204 | 0.0 | 0.0 | 0.00 | 0.00 | 0.00 | 65 | 1010.6 |
| 20260901132232 | 53 | 204 | 0.0 | 0.0 | 0.00 | 0.00 | 0.00 | 66 | 1010.6 |
| 20260901131636 | 54 | 204 | 0.0 | 0.0 | 0.00 | 0.00 | 0.00 | 65 | 1010.7 |
| 20260901131431 | 54 | 204 | 0.0 | 0.0 | 0.00 | 0.00 | 0.00 | 65 | 1010.7 |
| 20260901131226 | 54 | 204 | 0.0 | 0.0 | 0.00 | 0.00 | 0.00 | 65 | 1010.6 |
| 20260901131014 | 54 | 204 | 0.0 | 0.0 | 0.00 | 0.00 | 0.00 | 65 | 1010.6 |
| 20260901130809 | 54 | 204 | 0.0 | 0.0 | 0.00 | 0.00 | 0.00 | 65 | 1010.7 |
| 20260901130604 | 54 | 204 | 0.0 | 0.0 | 0.00 | 0.00 | 0.00 | 65 | 1010.7 |
| 20260901130216 | 54 | 204 | 0.0 | 0.0 | 0.00 | 0.00 | 0.00 | 65 | 1010.8 |
| 20260901130015 | 54 | 204 | 0.0 | 0.0 | 0.00 | 0.00 | 0.00 | 65 | 1010.7 |
| 20260901125804 | 54 | 204 | 0.0 | 0.0 | 0.00 | 0.00 | 0.00 | 65 | 1010.7 |
| 20260901125601 | 54 | 204 | 0.0 | 0.0 | 0.00 | 0.00 | 0.00 | 65 | 1010.6 |
| 20260901125349 | 54 | 204 | 0.0 | 0.0 | 0.00 | 0.00 | 0.00 | 65 | 1010.6 |
| 20260901125139 | 54 | 204 | 0.0 | 0.0 | 0.00 | 0.00 | 0.00 | 65 | 1010.7 |
| 20260901124932 | 54 | 204 | 0.0 | 0.0 | 0.00 | 0.00 | 0.00 | 65 | 1010.7 |
| 20260901124723 | 54 | 204 | 0.0 | 0.0 | 0.00 | 0.00 | 0.00 | 65 | 1010.8 |
| 20260901124520 | 54 | 204 | 0.0 | 0.0 | 0.00 | 0.00 | 0.00 | 65 | 1010.8 |
| 20260901124133 | 54 | 204 | 0.0 | 0.0 | 0.00 | 0.00 | 0.00 | 65 | 1010.7 |
| 20260901123931 | 54 | 204 | 0.0 | 0.0 | 0.00 | 0.00 | 0.00 | 65 | 1010.7 |
| 20260901123722 | 54 | 204 | 0.0 | 0.0 | 0.00 | 0.00 | 0.00 | 65 | 1010.7 |
| 20260901123510 | 54 | 204 | 0.0 | 0.0 | 0.00 | 0.00 | 0.00 | 65 | 1010.7 |
| 20260901123114 | 55 | 204 | 0.0 | 0.0 | 0.00 | 0.00 | 0.00 | 65 | 1010.6 |
| 20260901122907 | 55 | 204 | 0.0 | 0.0 | 0.00 | 0.00 | 0.00 | 65 | 1010.7 |
| 20260901122659 | 55 | 204 | 0.0 | 0.0 | 0.00 | 0.00 | 0.00 | 65 | 1010.6 |
| 20260901122457 | 55 | 204 | 0.0 | 0.0 | 0.00 | 0.00 | 0.00 | 65 | 1010.6 |
| 20260901122249 | 55 | 204 | 0.0 | 0.0 | 0.00 | 0.00 | 0.00 | 65 | 1010.6 |
| 20260901122037 | 55 | 204 | 0.0 | 0.0 | 0.00 | 0.00 | 0.00 | 65 | 1010.6 |
| 20260901121642 | 55 | 204 | 0.0 | 0.0 | 0.00 | 0.00 | 0.00 | 65 | 1010.7 |
| 20260901121434 | 55 | 204 | 0.0 | 0.0 | 0.00 | 0.00 | 0.00 | 65 | 1010.7 |
| 20260901121221 | 55 | 204 | 0.0 | 0.0 | 0.00 | 0.00 | 0.00 | 65 | 1010.6 |
| 20260901121014 | 55 | 204 | 0.0 | 0.0 | 0.00 | 0.00 | 0.00 | 65 | 1010.6 |
| 20260901120616 | 55 | 204 | 0.0 | 0.0 | 0.00 | 0.00 | 0.00 | 65 | 1010.6 |
| 20260901120410 | 55 | 204 | 0.0 | 0.0 | 0.00 | 0.00 | 0.00 | 65 | 1010.5 |
| 20260901120157 | 55 | 204 | 0.0 | 0.0 | 0.00 | 0.00 | 0.00 | 64 | 1010.5 |
| 20260901115802 | 55 | 204 | 0.0 | 0.0 | 0.00 | 0.00 | 0.00 | 65 | 1010.5 |
| 20260901115412 | 55 | 204 | 0.0 | 0.0 | 0.00 | 0.00 | 0.00 | 65 | 1010.5 |
| 20260901115201 | 55 | 204 | 0.0 | 0.0 | 0.00 | 0.00 | 0.00 | 65 | 1010.4 |
| 20260901114950 | 55 | 204 | 0.0 | 0.0 | 0.00 | 0.00 | 0.00 | 65 | 1010.3 |
| 20260901114740 | 55 | 204 | 0.0 | 0.0 | 0.00 | 0.00 | 0.00 | 65 | 1010.3 |
| 20260901114201 | 55 | 204 | 0.0 | 0.0 | 0.00 | 0.00 | 0.00 | 65 | 1010.3 |
| 20260901113948 | 55 | 204 | 0.0 | 0.0 | 0.00 | 0.00 | 0.00 | 65 | 1010.3 |
| 20260901113744 | 55 | 204 | 0.0 | 0.0 | 0.00 | 0.00 | 0.00 | 65 | 1010.3 |
| 20260901113539 | 55 | 204 | 0.0 | 0.0 | 0.00 | 0.00 | 0.00 | 65 | 1010.3 |
| 20260901113327 | 55 | 204 | 0.0 | 0.0 | 0.00 | 0.00 | 0.00 | 65 | 1010.3 |
| 20260901113115 | 55 | 204 | 0.0 | 0.0 | 0.00 | 0.00 | 0.00 | 65 | 1010.3 |
| 20260901112903 | 55 | 204 | 0.0 | 1.0 | 0.00 | 0.00 | 0.00 | 65 | 1010.3 |
| 20260901112652 | 55 | 204 | 0.0 | 0.0 | 0.00 | 0.00 | 0.00 | 65 | 1010.4 |
| 20260901112444 | 55 | 204 | 0.0 | 0.0 | 0.00 | 0.00 | 0.00 | 64 | 1010.4 |
| 20260901112053 | 55 | 204 | 0.0 | 1.0 | 0.00 | 0.00 | 0.00 | 64 | 1010.3 |
| 20260901111851 | 56 | 204 | 0.0 | 0.0 | 0.00 | 0.00 | 0.00 | 64 | 1010.3 |
| 20260901111642 | 55 | 204 | 0.0 | 0.0 | 0.00 | 0.00 | 0.00 | 64 | 1010.2 |
| 20260901111253 | 56 | 204 | 0.0 | 0.0 | 0.00 | 0.00 | 0.00 | 64 | 1010.2 |
| 20260901111040 | 56 | 204 | 0.0 | 0.0 | 0.00 | 0.00 | 0.00 | 64 | 1010.2 |
| 20260901110651 | 56 | 204 | 0.0 | 0.0 | 0.00 | 0.00 | 0.00 | 64 | 1010.2 |
| 20260901110446 | 56 | 204 | 0.0 | 0.0 | 0.00 | 0.00 | 0.00 | 63 | 1010.2 |
| 20260901110240 | 56 | 204 | 0.0 | 0.0 | 0.00 | 0.00 | 0.00 | 63 | 1010.2 |
| 20260901110028 | 56 | 204 | 0.0 | 0.0 | 0.00 | 0.00 | 0.00 | 63 | 1010.2 |
| 20260901105638 | 56 | 204 | 0.0 | 0.0 | 0.00 | 0.00 | 0.00 | 63 | 1010.3 |
| 20260901105432 | 56 | 204 | 0.0 | 0.0 | 0.00 | 0.00 | 0.00 | 63 | 1010.3 |
| 20260901105219 | 56 | 204 | 0.0 | 0.0 | 0.00 | 0.00 | 0.00 | 63 | 1010.2 |
| 20260901105008 | 56 | 204 | 0.0 | 0.0 | 0.00 | 0.00 | 0.00 | 63 | 1010.3 |
| 20260901104800 | 56 | 204 | 0.0 | 0.0 | 0.00 | 0.00 | 0.00 | 63 | 1010.2 |
| 20260901104557 | 56 | 204 | 0.0 | 0.0 | 0.00 | 0.00 | 0.00 | 63 | 1010.2 |
| 20260901104346 | 56 | 204 | 0.0 | 0.0 | 0.00 | 0.00 | 0.00 | 63 | 1010.2 |
| 20260901104136 | 56 | 204 | 0.0 | 0.0 | 0.00 | 0.00 | 0.00 | 63 | 1010.2 |
| 20260901103932 | 56 | 204 | 0.0 | 0.0 | 0.00 | 0.00 | 0.00 | 62 | 1010.2 |
| 20260901103727 | 56 | 204 | 0.0 | 0.0 | 0.00 | 0.00 | 0.00 | 62 | 1010.2 |
| 20260901103522 | 56 | 204 | 0.0 | 0.0 | 0.00 | 0.00 | 0.00 | 62 | 1010.3 |
| 20260901103320 | 56 | 204 | 0.0 | 0.0 | 0.00 | 0.00 | 0.00 | 62 | 1010.3 |
| 20260901102932 | 56 | 204 | 0.0 | 0.0 | 0.00 | 0.00 | 0.00 | 62 | 1010.2 |
| 20260901102721 | 56 | 204 | 0.0 | 0.0 | 0.00 | 0.00 | 0.00 | 62 | 1010.2 |
| 20260901102519 | 56 | 204 | 0.0 | 0.0 | 0.00 | 0.00 | 0.00 | 62 | 1010.2 |
| 20260901102310 | 56 | 204 | 0.0 | 0.0 | 0.00 | 0.00 | 0.00 | 62 | 1010.2 |
| 20260901101918 | 56 | 204 | 0.0 | 0.0 | 0.00 | 0.00 | 0.00 | 62 | 1010.2 |
| 20260901101716 | 56 | 204 | 0.0 | 0.0 | 0.00 | 0.00 | 0.00 | 62 | 1010.2 |
| 20260901101327 | 56 | 204 | 0.0 | 0.0 | 0.00 | 0.00 | 0.00 | 62 | 1010.1 |
| 20260901101114 | 56 | 204 | 0.0 | 0.0 | 0.00 | 0.00 | 0.00 | 62 | 1010.1 |
| 20260901100910 | 56 | 204 | 0.0 | 0.0 | 0.00 | 0.00 | 0.00 | 62 | 1010.1 |
| 20260901100657 | 56 | 204 | 0.0 | 0.0 | 0.00 | 0.00 | 0.00 | 62 | 1010.1 |
| 20260901100302 | 56 | 204 | 0.0 | 0.0 | 0.00 | 0.00 | 0.00 | 62 | 1010.1 |
| 20260901100056 | 56 | 204 | 0.0 | 0.0 | 0.00 | 0.00 | 0.00 | 62 | 1010.1 |
| 20260901095514 | 56 | 204 | 0.0 | 0.0 | 0.00 | 0.00 | 0.00 | 61 | 1010.0 |
| 20260901095308 | 57 | 204 | 0.0 | 0.0 | 0.00 | 0.00 | 0.00 | 61 | 1010.1 |
| 20260901095102 | 57 | 204 | 0.0 | 0.0 | 0.00 | 0.00 | 0.00 | 61 | 1010.1 |
| 20260901094706 | 57 | 204 | 0.0 | 0.0 | 0.00 | 0.00 | 0.00 | 61 | 1010.1 |
| 20260901094312 | 57 | 204 | 0.0 | 0.0 | 0.00 | 0.00 | 0.00 | 61 | 1010.1 |
| 20260901094106 | 57 | 204 | 0.0 | 0.0 | 0.00 | 0.00 | 0.00 | 61 | 1010.2 |
| 20260901093859 | 57 | 204 | 0.0 | 0.0 | 0.00 | 0.00 | 0.00 | 61 | 1010.1 |
| 20260901093653 | 57 | 204 | 0.0 | 0.0 | 0.00 | 0.00 | 0.00 | 61 | 1010.1 |
| 20260901093450 | 57 | 204 | 0.0 | 0.0 | 0.00 | 0.00 | 0.00 | 61 | 1010.2 |
| 20260901093058 | 57 | 204 | 0.0 | 0.0 | 0.00 | 0.00 | 0.00 | 60 | 1010.1 |
| 20260901092711 | 57 | 204 | 0.0 | 0.0 | 0.00 | 0.00 | 0.00 | 60 | 1010.1 |
| 20260901092502 | 57 | 204 | 0.0 | 0.0 | 0.00 | 0.00 | 0.00 | 60 | 1010.1 |
| 20260901092258 | 57 | 204 | 0.0 | 0.0 | 0.00 | 0.00 | 0.00 | 61 | 1010.1 |
| 20260901092052 | 57 | 204 | 0.0 | 0.0 | 0.00 | 0.00 | 0.00 | 61 | 1010.1 |
| 20260901091850 | 57 | 204 | 0.0 | 0.0 | 0.00 | 0.00 | 0.00 | 60 | 1010.2 |
| 20260901091645 | 57 | 204 | 0.0 | 0.0 | 0.00 | 0.00 | 0.00 | 60 | 1010.2 |
| 20260901091439 | 57 | 204 | 0.0 | 0.0 | 0.00 | 0.00 | 0.00 | 60 | 1010.2 |
| 20260901091229 | 57 | 204 | 0.0 | 0.0 | 0.00 | 0.00 | 0.00 | 60 | 1010.2 |
| 20260901091024 | 57 | 204 | 0.0 | 0.0 | 0.00 | 0.00 | 0.00 | 60 | 1010.2 |
| 20260901090818 | 57 | 204 | 0.0 | 0.0 | 0.00 | 0.00 | 0.00 | 60 | 1010.2 |
| 20260901090615 | 57 | 204 | 0.0 | 0.0 | 0.00 | 0.00 | 0.00 | 60 | 1010.2 |
| 20260901090408 | 57 | 204 | 0.0 | 0.0 | 0.00 | 0.00 | 0.00 | 60 | 1010.2 |
| 20260901090157 | 57 | 204 | 0.0 | 0.0 | 0.00 | 0.00 | 0.00 | 60 | 1010.2 |
| 20260901085804 | 57 | 204 | 0.0 | 0.0 | 0.00 | 0.00 | 0.00 | 60 | 1010.2 |
| 20260901085553 | 57 | 204 | 0.0 | 0.0 | 0.00 | 0.00 | 0.00 | 60 | 1010.2 |
| 20260901085348 | 57 | 204 | 0.0 | 0.0 | 0.00 | 0.00 | 0.00 | 60 | 1010.3 |
| 20260901085140 | 57 | 204 | 0.0 | 0.0 | 0.00 | 0.00 | 0.00 | 60 | 1010.3 |
| 20260901084934 | 57 | 204 | 0.0 | 0.0 | 0.00 | 0.00 | 0.00 | 60 | 1010.3 |
| 20260901084727 | 57 | 204 | 0.0 | 0.0 | 0.00 | 0.00 | 0.00 | 60 | 1010.3 |
| 20260901084522 | 57 | 204 | 0.0 | 0.0 | 0.00 | 0.00 | 0.00 | 60 | 1010.2 |
| 20260901084313 | 57 | 204 | 0.0 | 0.0 | 0.00 | 0.00 | 0.00 | 60 | 1010.2 |
| 20260901084105 | 57 | 204 | 0.0 | 0.0 | 0.00 | 0.00 | 0.00 | 60 | 1010.2 |
| 20260901083854 | 57 | 204 | 0.0 | 0.0 | 0.00 | 0.00 | 0.00 | 60 | 1010.3 |
| 20260901083645 | 57 | 204 | 0.0 | 0.0 | 0.00 | 0.00 | 0.00 | 60 | 1010.3 |
| 20260901083441 | 57 | 204 | 0.0 | 0.0 | 0.00 | 0.00 | 0.00 | 60 | 1010.3 |
| 20260901083234 | 57 | 204 | 0.0 | 0.0 | 0.00 | 0.00 | 0.00 | 59 | 1010.3 |
| 20260901083032 | 57 | 204 | 0.0 | 0.0 | 0.00 | 0.00 | 0.00 | 59 | 1010.2 |
| 20260901082644 | 57 | 204 | 0.0 | 0.0 | 0.00 | 0.00 | 0.00 | 59 | 1010.2 |
| 20260901082435 | 57 | 204 | 0.0 | 0.0 | 0.00 | 0.00 | 0.00 | 59 | 1010.3 |
| 20260901082224 | 57 | 204 | 0.0 | 0.0 | 0.00 | 0.00 | 0.00 | 59 | 1010.2 |
| 20260901082018 | 57 | 204 | 0.0 | 0.0 | 0.00 | 0.00 | 0.00 | 59 | 1010.3 |
| 20260901081436 | 57 | 204 | 0.0 | 0.0 | 0.00 | 0.00 | 0.00 | 59 | 1010.3 |
| 20260901081225 | 57 | 204 | 0.0 | 0.0 | 0.00 | 0.00 | 0.00 | 59 | 1010.3 |
| 20260901080838 | 57 | 204 | 0.0 | 0.0 | 0.00 | 0.00 | 0.00 | 59 | 1010.4 |
| 20260901080445 | 57 | 204 | 0.0 | 0.0 | 0.00 | 0.00 | 0.00 | 59 | 1010.4 |
| 20260901080243 | 57 | 204 | 0.0 | 0.0 | 0.00 | 0.00 | 0.00 | 59 | 1010.3 |
| 20260901075709 | 57 | 204 | 0.0 | 0.0 | 0.00 | 0.00 | 0.00 | 59 | 1010.3 |
| 20260901075457 | 58 | 204 | 0.0 | 0.0 | 0.00 | 0.00 | 0.00 | 59 | 1010.3 |
| 20260901075253 | 58 | 204 | 0.0 | 0.0 | 0.00 | 0.00 | 0.00 | 59 | 1010.2 |
| 20260901075045 | 58 | 204 | 0.0 | 0.0 | 0.00 | 0.00 | 0.00 | 59 | 1010.2 |
| 20260901074836 | 58 | 204 | 0.0 | 0.0 | 0.00 | 0.00 | 0.00 | 59 | 1010.3 |
| 20260901074633 | 58 | 204 | 0.0 | 0.0 | 0.00 | 0.00 | 0.00 | 59 | 1010.3 |
| 20260901074427 | 58 | 204 | 0.0 | 0.0 | 0.00 | 0.00 | 0.00 | 59 | 1010.2 |
| 20260901074219 | 58 | 204 | 0.0 | 0.0 | 0.00 | 0.00 | 0.00 | 59 | 1010.3 |
| 20260901073832 | 58 | 204 | 0.0 | 0.0 | 0.00 | 0.00 | 0.00 | 59 | 1010.3 |
| 20260901073620 | 58 | 204 | 0.0 | 0.0 | 0.00 | 0.00 | 0.00 | 59 | 1010.3 |
| 20260901073414 | 58 | 204 | 0.0 | 0.0 | 0.00 | 0.00 | 0.00 | 59 | 1010.2 |
| 20260901073205 | 58 | 204 | 0.0 | 0.0 | 0.00 | 0.00 | 0.00 | 59 | 1010.2 |
| 20260901073003 | 58 | 204 | 0.0 | 0.0 | 0.00 | 0.00 | 0.00 | 59 | 1010.2 |
| 20260901072751 | 58 | 204 | 0.0 | 0.0 | 0.00 | 0.00 | 0.00 | 59 | 1010.3 |
| 20260901072544 | 58 | 204 | 0.0 | 0.0 | 0.00 | 0.00 | 0.00 | 59 | 1010.2 |
| 20260901072331 | 58 | 204 | 0.0 | 0.0 | 0.00 | 0.00 | 0.00 | 59 | 1010.2 |
| 20260901072123 | 58 | 204 | 0.0 | 0.0 | 0.00 | 0.00 | 0.00 | 59 | 1010.2 |
| 20260901071919 | 58 | 204 | 0.0 | 0.0 | 0.00 | 0.00 | 0.00 | 59 | 1010.1 |
| 20260901071714 | 58 | 204 | 0.0 | 0.0 | 0.00 | 0.00 | 0.00 | 58 | 1010.2 |
| 20260901071507 | 58 | 204 | 0.0 | 0.0 | 0.00 | 0.00 | 0.00 | 58 | 1010.2 |
| 20260901071302 | 58 | 204 | 0.0 | 0.0 | 0.00 | 0.00 | 0.00 | 58 | 1010.1 |
| 20260901071059 | 58 | 204 | 0.0 | 0.0 | 0.00 | 0.00 | 0.00 | 58 | 1010.1 |
| 20260901070847 | 58 | 204 | 0.0 | 0.0 | 0.00 | 0.00 | 0.00 | 58 | 1010.1 |
| 20260901070643 | 58 | 204 | 0.0 | 0.0 | 0.00 | 0.00 | 0.00 | 58 | 1010.1 |
| 20260901070430 | 58 | 204 | 0.0 | 0.0 | 0.00 | 0.00 | 0.00 | 58 | 1010.2 |
| 20260901070218 | 58 | 204 | 0.0 | 0.0 | 0.00 | 0.00 | 0.00 | 58 | 1010.2 |
| 20260901070015 | 58 | 204 | 0.0 | 0.0 | 0.00 | 0.00 | 0.00 | 58 | 1010.0 |
| 20260901065814 | 58 | 204 | 0.0 | 0.0 | 0.00 | 0.00 | 0.00 | 58 | 1010.1 |
| 20260901065610 | 59 | 204 | 0.0 | 0.0 | 0.00 | 0.00 | 0.00 | 58 | 1009.9 |
| 20260901065221 | 59 | 204 | 0.0 | 0.0 | 0.00 | 0.00 | 0.00 | 58 | 1010.0 |
| 20260901064826 | 59 | 204 | 0.0 | 0.0 | 0.00 | 0.00 | 0.00 | 57 | 1009.9 |
| 20260901064618 | 59 | 204 | 0.0 | 0.0 | 0.00 | 0.00 | 0.00 | 57 | 1009.9 |
| 20260901064226 | 59 | 204 | 0.0 | 0.0 | 0.00 | 0.00 | 0.00 | 57 | 1009.8 |
| 20260901064014 | 59 | 204 | 0.0 | 0.0 | 0.00 | 0.00 | 0.00 | 57 | 1009.9 |
| 20260901063807 | 59 | 204 | 0.0 | 0.0 | 0.00 | 0.00 | 0.00 | 57 | 1009.9 |
| 20260901063605 | 59 | 204 | 0.0 | 0.0 | 0.00 | 0.00 | 0.00 | 57 | 1009.9 |
| 20260901063357 | 59 | 204 | 0.0 | 0.0 | 0.00 | 0.00 | 0.00 | 57 | 1009.8 |
| 20260901063148 | 59 | 204 | 0.0 | 0.0 | 0.00 | 0.00 | 0.00 | 57 | 1009.9 |
| 20260901062942 | 59 | 204 | 0.0 | 0.0 | 0.00 | 0.00 | 0.00 | 57 | 1009.9 |
| 20260901062734 | 59 | 204 | 0.0 | 0.0 | 0.00 | 0.00 | 0.00 | 57 | 1009.9 |
| 20260901062345 | 59 | 204 | 0.0 | 0.0 | 0.00 | 0.00 | 0.00 | 56 | 1009.8 |
| 20260901061957 | 60 | 204 | 0.0 | 0.0 | 0.00 | 0.00 | 0.00 | 56 | 1009.8 |
| 20260901061747 | 60 | 204 | 0.0 | 0.0 | 0.00 | 0.00 | 0.00 | 56 | 1009.8 |
| 20260901061536 | 60 | 204 | 0.0 | 0.0 | 0.00 | 0.00 | 0.00 | 56 | 1009.8 |
| 20260901061332 | 60 | 204 | 0.0 | 0.0 | 0.00 | 0.00 | 0.00 | 56 | 1009.8 |
| 20260901061125 | 60 | 204 | 0.0 | 0.0 | 0.00 | 0.00 | 0.00 | 56 | 1009.8 |
| 20260901060406 | 60 | 204 | 0.0 | 0.0 | 0.00 | 0.00 | 0.00 | 56 | 1009.8 |
| 20260901060205 | 60 | 204 | 0.0 | 0.0 | 0.00 | 0.00 | 0.00 | 55 | 1009.8 |
| 20260901055954 | 60 | 204 | 0.0 | 0.0 | 0.00 | 0.00 | 0.00 | 55 | 1009.7 |
| 20260901055749 | 60 | 204 | 0.0 | 0.0 | 0.00 | 0.00 | 0.00 | 55 | 1009.7 |
| 20260901055537 | 60 | 204 | 0.0 | 0.0 | 0.00 | 0.00 | 0.00 | 55 | 1009.7 |
| 20260901055139 | 61 | 204 | 0.0 | 0.0 | 0.00 | 0.00 | 0.00 | 55 | 1009.7 |
| 20260901054935 | 61 | 204 | 0.0 | 0.0 | 0.00 | 0.00 | 0.00 | 55 | 1009.7 |
| 20260901054729 | 61 | 204 | 0.0 | 0.0 | 0.00 | 0.00 | 0.00 | 55 | 1009.7 |
| 20260901054522 | 61 | 204 | 0.0 | 0.0 | 0.00 | 0.00 | 0.00 | 55 | 1009.8 |
| 20260901054312 | 61 | 204 | 0.0 | 0.0 | 0.00 | 0.00 | 0.00 | 55 | 1009.8 |
| 20260901054107 | 61 | 204 | 0.0 | 0.0 | 0.00 | 0.00 | 0.00 | 55 | 1009.8 |
| 20260901053857 | 61 | 204 | 0.0 | 0.0 | 0.00 | 0.00 | 0.00 | 55 | 1009.8 |
| 20260901053645 | 61 | 204 | 0.0 | 0.0 | 0.00 | 0.00 | 0.00 | 55 | 1009.8 |
| 20260901053257 | 61 | 204 | 0.0 | 0.0 | 0.00 | 0.00 | 0.00 | 54 | 1009.9 |
| 20260901053052 | 61 | 204 | 0.0 | 0.0 | 0.00 | 0.00 | 0.00 | 54 | 1009.8 |
| 20260901052842 | 61 | 204 | 0.0 | 0.0 | 0.00 | 0.00 | 0.00 | 54 | 1009.8 |
| 20260901052638 | 62 | 204 | 0.0 | 0.0 | 0.00 | 0.00 | 0.00 | 54 | 1009.8 |
| 20260901052239 | 62 | 204 | 0.0 | 0.0 | 0.00 | 0.00 | 0.00 | 54 | 1009.7 |
| 20260901052037 | 62 | 204 | 0.0 | 0.0 | 0.00 | 0.00 | 0.00 | 54 | 1009.7 |
| 20260901051829 | 62 | 204 | 0.0 | 0.0 | 0.00 | 0.00 | 0.00 | 54 | 1009.7 |
| 20260901051626 | 62 | 204 | 0.0 | 0.0 | 0.00 | 0.00 | 0.00 | 54 | 1009.7 |
| 20260901051415 | 62 | 204 | 0.0 | 0.0 | 0.00 | 0.00 | 0.00 | 54 | 1009.8 |
| 20260901051206 | 62 | 204 | 0.0 | 0.0 | 0.00 | 0.00 | 0.00 | 53 | 1009.7 |
| 20260901051000 | 62 | 204 | 0.0 | 0.0 | 0.00 | 0.00 | 0.00 | 53 | 1009.7 |
| 20260901050749 | 62 | 204 | 0.0 | 0.0 | 0.00 | 0.00 | 0.00 | 53 | 1009.7 |
| 20260901050541 | 62 | 204 | 0.0 | 0.0 | 0.00 | 0.00 | 0.00 | 53 | 1009.7 |
| 20260901050338 | 63 | 204 | 0.0 | 0.0 | 0.00 | 0.00 | 0.00 | 53 | 1009.7 |
| 20260901050125 | 63 | 204 | 0.0 | 0.0 | 0.00 | 0.00 | 0.00 | 53 | 1009.7 |
| 20260901045727 | 63 | 204 | 0.0 | 0.0 | 0.00 | 0.00 | 0.00 | 53 | 1009.7 |
| 20260901045525 | 63 | 204 | 0.0 | 0.0 | 0.00 | 0.00 | 0.00 | 52 | 1009.7 |
| 20260901045137 | 63 | 204 | 0.0 | 0.0 | 0.00 | 0.00 | 0.00 | 52 | 1009.7 |
| 20260901044929 | 63 | 204 | 0.0 | 0.0 | 0.00 | 0.00 | 0.00 | 52 | 1009.6 |
| 20260901044716 | 63 | 204 | 0.0 | 0.0 | 0.00 | 0.00 | 0.00 | 52 | 1009.6 |
| 20260901044513 | 63 | 204 | 0.0 | 0.0 | 0.00 | 0.00 | 0.00 | 51 | 1009.6 |
| 20260901044305 | 63 | 204 | 0.0 | 0.0 | 0.00 | 0.00 | 0.00 | 51 | 1009.6 |
| 20260901044104 | 64 | 204 | 0.0 | 0.0 | 0.00 | 0.00 | 0.00 | 51 | 1009.6 |
| 20260901043856 | 64 | 204 | 0.0 | 0.0 | 0.00 | 0.00 | 0.00 | 51 | 1009.7 |
| 20260901043654 | 64 | 204 | 0.0 | 0.0 | 0.00 | 0.00 | 0.00 | 51 | 1009.6 |
| 20260901043446 | 64 | 204 | 0.0 | 0.0 | 0.00 | 0.00 | 0.00 | 51 | 1009.7 |
| 20260901043243 | 64 | 204 | 0.0 | 0.0 | 0.00 | 0.00 | 0.00 | 51 | 1009.7 |
| 20260901043039 | 64 | 204 | 0.0 | 0.0 | 0.00 | 0.00 | 0.00 | 50 | 1009.6 |
| 20260901042832 | 64 | 204 | 0.0 | 0.0 | 0.00 | 0.00 | 0.00 | 50 | 1009.6 |
| 20260901042627 | 64 | 204 | 0.0 | 0.0 | 0.00 | 0.00 | 0.00 | 50 | 1009.6 |
| 20260901042418 | 65 | 204 | 0.0 | 0.0 | 0.00 | 0.00 | 0.00 | 50 | 1009.7 |
| 20260901042026 | 65 | 204 | 0.0 | 0.0 | 0.00 | 0.00 | 0.00 | 50 | 1009.7 |
| 20260901041640 | 65 | 204 | 0.0 | 0.0 | 0.00 | 0.00 | 0.00 | 49 | 1009.7 |
| 20260901041437 | 65 | 204 | 0.0 | 0.0 | 0.00 | 0.00 | 0.00 | 49 | 1009.5 |
| 20260901041231 | 65 | 204 | 0.0 | 0.0 | 0.00 | 0.00 | 0.00 | 49 | 1009.6 |
| 20260901041028 | 65 | 204 | 0.0 | 0.0 | 0.00 | 0.00 | 0.00 | 49 | 1009.6 |
| 20260901040823 | 66 | 204 | 0.0 | 0.0 | 0.00 | 0.00 | 0.00 | 49 | 1009.5 |
| 20260901040616 | 66 | 204 | 0.0 | 0.0 | 0.00 | 0.00 | 0.00 | 49 | 1009.5 |
| 20260901040409 | 66 | 204 | 0.0 | 0.0 | 0.00 | 0.00 | 0.00 | 49 | 1009.5 |
| 20260901040204 | 66 | 204 | 0.0 | 0.0 | 0.00 | 0.00 | 0.00 | 48 | 1009.5 |
| 20260901035951 | 66 | 204 | 0.0 | 0.0 | 0.00 | 0.00 | 0.00 | 48 | 1009.5 |
| 20260901035745 | 66 | 204 | 0.0 | 0.0 | 0.00 | 0.00 | 0.00 | 48 | 1009.5 |
| 20260901035542 | 66 | 204 | 0.0 | 0.0 | 0.00 | 0.00 | 0.00 | 48 | 1009.4 |
| 20260901035336 | 67 | 204 | 0.0 | 0.0 | 0.00 | 0.00 | 0.00 | 48 | 1009.4 |
| 20260901035125 | 67 | 204 | 0.0 | 0.0 | 0.00 | 0.00 | 0.00 | 47 | 1009.5 |
| 20260901034737 | 67 | 204 | 0.0 | 0.0 | 0.00 | 0.00 | 0.00 | 47 | 1009.4 |
| 20260901034535 | 67 | 204 | 0.0 | 0.0 | 0.00 | 0.00 | 0.00 | 47 | 1009.3 |
| 20260901034332 | 67 | 204 | 0.0 | 0.0 | 0.00 | 0.00 | 0.00 | 47 | 1009.3 |
| 20260901034127 | 68 | 204 | 0.0 | 0.0 | 0.00 | 0.00 | 0.00 | 46 | 1009.3 |
| 20260901033914 | 68 | 204 | 0.0 | 0.0 | 0.00 | 0.00 | 0.00 | 46 | 1009.2 |
| 20260901033704 | 68 | 204 | 0.0 | 0.0 | 0.00 | 0.00 | 0.00 | 46 | 1009.3 |
| 20260901033500 | 68 | 204 | 0.0 | 0.0 | 0.00 | 0.00 | 0.00 | 46 | 1009.2 |
| 20260901033254 | 68 | 204 | 0.0 | 0.0 | 0.00 | 0.00 | 0.00 | 46 | 1009.2 |
| 20260901033048 | 69 | 204 | 0.0 | 0.0 | 0.00 | 0.00 | 0.00 | 45 | 1009.1 |
| 20260901032845 | 69 | 204 | 0.0 | 0.0 | 0.00 | 0.00 | 0.00 | 45 | 1009.2 |
| 20260901032458 | 69 | 204 | 0.0 | 0.0 | 0.00 | 0.00 | 0.00 | 45 | 1009.1 |
| 20260901032250 | 69 | 204 | 0.0 | 0.0 | 0.00 | 0.00 | 0.00 | 45 | 1009.0 |
| 20260901032046 | 70 | 204 | 0.0 | 0.0 | 0.00 | 0.00 | 0.00 | 45 | 1009.1 |
| 20260901031653 | 70 | 204 | 0.0 | 0.0 | 0.00 | 0.00 | 0.00 | 44 | 1009.1 |
| 20260901031302 | 70 | 204 | 0.0 | 0.0 | 0.00 | 0.00 | 0.00 | 44 | 1009.0 |
| 20260901030912 | 71 | 204 | 0.0 | 0.0 | 0.00 | 0.00 | 0.00 | 44 | 1009.0 |
| 20260901030702 | 71 | 204 | 0.0 | 0.0 | 0.00 | 0.00 | 0.00 | 44 | 1008.9 |
| 20260901030455 | 71 | 204 | 0.0 | 0.0 | 0.00 | 0.00 | 0.00 | 44 | 1009.0 |
| 20260901025916 | 72 | 204 | 0.0 | 0.0 | 0.00 | 0.00 | 0.00 | 43 | 1008.9 |
| 20260901025713 | 72 | 204 | 0.0 | 0.0 | 0.00 | 0.00 | 0.00 | 43 | 1008.8 |
| 20260901025505 | 72 | 204 | 0.0 | 0.0 | 0.00 | 0.00 | 0.00 | 43 | 1008.8 |
| 20260901024932 | 72 | 204 | 0.0 | 0.0 | 0.00 | 0.00 | 0.00 | 43 | 1008.7 |
| 20260901024539 | 73 | 204 | 0.0 | 0.0 | 0.00 | 0.00 | 0.00 | 43 | 1008.7 |
| 20260901024334 | 73 | 204 | 0.0 | 0.0 | 0.00 | 0.00 | 0.00 | 42 | 1008.8 |
| 20260901023947 | 73 | 204 | 0.0 | 0.0 | 0.00 | 0.00 | 0.00 | 42 | 1008.8 |
| 20260901023744 | 73 | 204 | 0.0 | 0.0 | 0.00 | 0.00 | 0.00 | 42 | 1008.7 |
| 20260901023535 | 73 | 204 | 0.0 | 0.0 | 0.00 | 0.00 | 0.00 | 42 | 1008.7 |
| 20260901023138 | 74 | 204 | 0.0 | 0.0 | 0.00 | 0.00 | 0.00 | 42 | 1008.8 |
| 20260901022927 | 74 | 204 | 0.0 | 0.0 | 0.00 | 0.00 | 0.00 | 42 | 1008.7 |
| 20260901022724 | 74 | 204 | 0.0 | 0.0 | 0.00 | 0.00 | 0.00 | 42 | 1008.7 |
| 20260901022518 | 74 | 204 | 0.0 | 0.0 | 0.00 | 0.00 | 0.00 | 42 | 1008.7 |
| 20260901022129 | 74 | 204 | 0.0 | 0.0 | 0.00 | 0.00 | 0.00 | 41 | 1008.7 |
| 20260901021925 | 75 | 204 | 0.0 | 0.0 | 0.00 | 0.00 | 0.00 | 41 | 1008.7 |
| 20260901021717 | 75 | 204 | 0.0 | 0.0 | 0.00 | 0.00 | 0.00 | 40 | 1008.6 |
| 20260901021505 | 75 | 204 | 0.0 | 0.0 | 0.00 | 0.00 | 0.00 | 40 | 1008.6 |
| 20260901021302 | 75 | 204 | 0.0 | 0.0 | 0.00 | 0.00 | 0.00 | 40 | 1008.5 |
| 20260901021057 | 75 | 204 | 0.0 | 0.0 | 0.00 | 0.00 | 0.00 | 40 | 1008.6 |
| 20260901020848 | 75 | 204 | 0.0 | 0.0 | 0.00 | 0.00 | 0.00 | 40 | 1008.5 |
| 20260901020636 | 76 | 204 | 0.0 | 0.0 | 0.00 | 0.00 | 0.00 | 40 | 1008.5 |
| 20260901020425 | 76 | 204 | 0.0 | 0.0 | 0.00 | 0.00 | 0.00 | 40 | 1008.5 |
| 20260901020214 | 76 | 204 | 0.0 | 0.0 | 0.00 | 0.00 | 0.00 | 40 | 1008.5 |
| 20260901020006 | 76 | 204 | 0.0 | 0.0 | 0.00 | 0.00 | 0.00 | 40 | 1008.4 |
| 20260901015801 | 76 | 204 | 0.0 | 0.0 | 0.00 | 0.00 | 0.00 | 39 | 1008.5 |
| 20260901015554 | 76 | 204 | 0.0 | 0.0 | 0.00 | 0.00 | 0.00 | 39 | 1008.5 |
| 20260901015351 | 77 | 204 | 0.0 | 0.0 | 0.00 | 0.00 | 0.00 | 38 | 1008.5 |
| 20260901015139 | 77 | 204 | 0.0 | 0.0 | 0.00 | 0.00 | 0.00 | 38 | 1008.5 |
| 20260901014928 | 77 | 204 | 0.0 | 0.0 | 0.00 | 0.00 | 0.00 | 38 | 1008.5 |
| 20260901014722 | 77 | 204 | 0.0 | 0.0 | 0.00 | 0.00 | 0.00 | 38 | 1008.5 |
| 20260901014517 | 77 | 204 | 0.0 | 0.0 | 0.00 | 0.00 | 0.00 | 38 | 1008.5 |
| 20260901014306 | 77 | 204 | 0.0 | 0.0 | 0.00 | 0.00 | 0.00 | 38 | 1008.5 |
| 20260901014056 | 77 | 204 | 0.0 | 0.0 | 0.00 | 0.00 | 0.00 | 38 | 1008.5 |
| 20260901013845 | 78 | 204 | 0.0 | 0.0 | 0.00 | 0.00 | 0.00 | 37 | 1008.4 |
| 20260901013453 | 78 | 204 | 0.0 | 0.0 | 0.00 | 0.00 | 0.00 | 36 | 1008.5 |
| 20260901013250 | 78 | 204 | 0.0 | 0.0 | 0.00 | 0.00 | 0.00 | 35 | 1008.4 |
| 20260901012904 | 78 | 204 | 0.0 | 2.0 | 0.00 | 0.00 | 0.00 | 36 | 1008.5 |
| 20260901012509 | 78 | 204 | 0.0 | 2.0 | 0.00 | 0.00 | 0.00 | 35 | 1008.5 |
| 20260901012306 | 78 | 204 | 0.0 | 2.0 | 0.00 | 0.00 | 0.00 | 35 | 1008.5 |
| 20260901012100 | 79 | 204 | 0.0 | 2.0 | 0.00 | 0.00 | 0.00 | 36 | 1008.5 |
| 20260901011849 | 79 | 204 | 0.0 | 0.0 | 0.00 | 0.00 | 0.00 | 36 | 1008.5 |
| 20260901011643 | 79 | 204 | 0.0 | 2.0 | 0.00 | 0.00 | 0.00 | 35 | 1008.5 |
| 20260901011256 | 79 | 203 | 0.0 | 1.0 | 0.00 | 0.00 | 0.00 | 34 | 1008.5 |
| 20260901011044 | 79 | 215 | 0.0 | 1.0 | 0.00 | 0.00 | 0.00 | 34 | 1008.5 |
| 20260901010837 | 79 | 215 | 0.0 | 0.0 | 0.00 | 0.00 | 0.00 | 34 | 1008.5 |
| 20260901010627 | 80 | 215 | 0.0 | 7.0 | 0.00 | 0.00 | 0.00 | 34 | 1008.5 |
| 20260901010422 | 80 | 215 | 0.0 | 7.0 | 0.00 | 0.00 | 0.00 | 34 | 1008.4 |
| 20260901010030 | 80 | 215 | 0.0 | 2.0 | 0.00 | 0.00 | 0.00 | 35 | 1008.4 |
| 20260901005822 | 80 | 215 | 0.0 | 2.0 | 0.00 | 0.00 | 0.00 | 34 | 1008.4 |
| 20260901005435 | 80 | 215 | 0.0 | 2.0 | 0.00 | 0.00 | 0.00 | 33 | 1008.4 |
| 20260901005228 | 80 | 215 | 0.0 | 0.0 | 0.00 | 0.00 | 0.00 | 33 | 1008.4 |
| 20260901005021 | 81 | 215 | 0.0 | 1.0 | 0.00 | 0.00 | 0.00 | 33 | 1008.4 |
| 20260901004812 | 81 | 215 | 0.0 | 1.0 | 0.00 | 0.00 | 0.00 | 33 | 1008.4 |
| 20260901004605 | 81 | 215 | 0.0 | 1.0 | 0.00 | 0.00 | 0.00 | 33 | 1008.4 |
| 20260901004352 | 81 | 215 | 0.0 | 0.0 | 0.00 | 0.00 | 0.00 | 33 | 1008.4 |
| 20260901003957 | 81 | 215 | 0.0 | 7.0 | 0.00 | 0.00 | 0.00 | 32 | 1008.4 |
| 20260901003755 | 81 | 215 | 0.0 | 7.0 | 0.00 | 0.00 | 0.00 | 32 | 1008.5 |
| 20260901003548 | 81 | 213 | 0.0 | 3.0 | 0.00 | 0.00 | 0.00 | 33 | 1008.5 |
| 20260901003341 | 81 | 213 | 0.0 | 2.0 | 0.00 | 0.00 | 0.00 | 33 | 1008.6 |
| 20260901003135 | 81 | 213 | 0.0 | 2.0 | 0.00 | 0.00 | 0.00 | 33 | 1008.6 |
| 20260901002925 | 81 | 213 | 0.0 | 6.0 | 0.00 | 0.00 | 0.00 | 32 | 1008.6 |
| 20260901002713 | 81 | 213 | 0.0 | 6.0 | 0.00 | 0.00 | 0.00 | 32 | 1008.6 |
| 20260901002504 | 81 | 212 | 0.0 | 6.0 | 0.00 | 0.00 | 0.00 | 33 | 1008.6 |
| 20260901002257 | 81 | 212 | 0.0 | 6.0 | 0.00 | 0.00 | 0.00 | 32 | 1008.6 |
| 20260901002049 | 81 | 206 | 0.0 | 6.0 | 0.00 | 0.00 | 0.00 | 32 | 1008.6 |
| 20260901001848 | 82 | 212 | 0.0 | 6.0 | 0.00 | 0.00 | 0.00 | 32 | 1008.6 |
| 20260901001645 | 82 | 212 | 0.0 | 6.0 | 0.00 | 0.00 | 0.00 | 33 | 1008.7 |
| 20260901001439 | 82 | 212 | 0.0 | 6.0 | 0.00 | 0.00 | 0.00 | 32 | 1008.7 |
| 20260901001236 | 82 | 212 | 0.0 | 6.0 | 0.00 | 0.00 | 0.00 | 31 | 1008.7 |
| 20260901001033 | 83 | 215 | 0.0 | 6.0 | 0.00 | 0.00 | 0.00 | 31 | 1008.7 |
| 20260901000824 | 83 | 224 | 0.0 | 1.0 | 0.00 | 0.00 | 0.00 | 30 | 1008.7 |
| 20260901000429 | 83 | 224 | 1.0 | 5.0 | 0.00 | 0.00 | 0.00 | 31 | 1008.7 |
| 20260901000220 | 83 | 224 | 0.0 | 5.0 | 0.00 | 0.00 | 0.00 | 30 | 1008.7 |
| 20260901000010 | 84 | 224 | 0.0 | 5.0 | 0.00 | 0.00 | 0.00 | 31 | 1008.8 |
| 20260831235803 | 83 | 223 | 0.0 | 4.0 | 0.00 | 0.00 | 0.00 | 31 | 1008.7 |
| 20260831235600 | 83 | 214 | 0.0 | 4.0 | 0.00 | 0.00 | 0.00 | 31 | 1008.8 |
| 20260831235209 | 83 | 213 | 1.0 | 4.0 | 0.00 | 0.00 | 0.00 | 31 | 1008.8 |
| 20260831235006 | 83 | 213 | 1.0 | 7.0 | 0.00 | 0.00 | 0.00 | 31 | 1008.8 |
| 20260831234757 | 83 | 214 | 1.0 | 7.0 | 0.00 | 0.00 | 0.00 | 30 | 1008.7 |
| 20260831234359 | 84 | 213 | 2.0 | 7.0 | 0.00 | 0.00 | 0.00 | 30 | 1008.8 |
| 20260831233825 | 84 | 215 | 1.0 | 7.0 | 0.00 | 0.00 | 0.00 | 30 | 1008.9 |
| 20260831233621 | 84 | 217 | 1.0 | 7.0 | 0.00 | 0.00 | 0.00 | 31 | 1008.9 |
| 20260831233227 | 84 | 216 | 1.0 | 7.0 | 0.00 | 0.00 | 0.00 | 30 | 1008.9 |
| 20260831233018 | 84 | 219 | 1.0 | 0.0 | 0.00 | 0.00 | 0.00 | 30 | 1008.9 |
| 20260831232803 | 84 | 219 | 1.0 | 5.0 | 0.00 | 0.00 | 0.00 | 32 | 1008.9 |
| 20260831232409 | 84 | 211 | 1.0 | 5.0 | 0.00 | 0.00 | 0.00 | 31 | 1008.9 |
| 20260831232207 | 84 | 205 | 1.0 | 5.0 | 0.00 | 0.00 | 0.00 | 30 | 1009.0 |
| 20260831231816 | 84 | 225 | 1.0 | 5.0 | 0.00 | 0.00 | 0.00 | 31 | 1009.1 |
| 20260831231424 | 84 | 213 | 1.0 | 6.0 | 0.00 | 0.00 | 0.00 | 31 | 1009.0 |
| 20260831231214 | 84 | 220 | 1.0 | 6.0 | 0.00 | 0.00 | 0.00 | 30 | 1009.0 |
| 20260831231007 | 84 | 221 | 1.0 | 6.0 | 0.00 | 0.00 | 0.00 | 29 | 1009.0 |
| 20260831230804 | 84 | 225 | 1.0 | 6.0 | 0.00 | 0.00 | 0.00 | 29 | 1009.0 |
| 20260831230552 | 84 | 225 | 1.0 | 6.0 | 0.00 | 0.00 | 0.00 | 29 | 1009.1 |
| 20260831230350 | 84 | 225 | 1.0 | 9.0 | 0.00 | 0.00 | 0.00 | 29 | 1009.1 |
| 20260831230138 | 84 | 213 | 1.0 | 9.0 | 0.00 | 0.00 | 0.00 | 31 | 1009.0 |
| 20260831225925 | 84 | 216 | 1.0 | 9.0 | 0.00 | 0.00 | 0.00 | 31 | 1009.0 |
| 20260831225717 | 84 | 209 | 2.0 | 9.0 | 0.00 | 0.00 | 0.00 | 31 | 1009.0 |
| 20260831225510 | 84 | 217 | 1.0 | 9.0 | 0.00 | 0.00 | 0.00 | 32 | 1009.0 |
| 20260831225122 | 84 | 227 | 1.0 | 9.0 | 0.00 | 0.00 | 0.00 | 34 | 1009.1 |
| 20260831224918 | 84 | 240 | 1.0 | 9.0 | 0.00 | 0.00 | 0.00 | 32 | 1009.1 |
| 20260831224715 | 84 | 218 | 0.0 | 9.0 | 0.00 | 0.00 | 0.00 | 32 | 1009.1 |
| 20260831224502 | 84 | 216 | 1.0 | 6.0 | 0.00 | 0.00 | 0.00 | 32 | 1009.1 |
| 20260831224249 | 84 | 221 | 1.0 | 6.0 | 0.00 | 0.00 | 0.00 | 31 | 1009.1 |
| 20260831224048 | 84 | 221 | 1.0 | 6.0 | 0.00 | 0.00 | 0.00 | 32 | 1009.1 |
| 20260831223843 | 84 | 221 | 2.0 | 8.0 | 0.00 | 0.00 | 0.00 | 32 | 1009.1 |
| 20260831223631 | 84 | 229 | 2.0 | 8.0 | 0.00 | 0.00 | 0.00 | 31 | 1009.2 |
| 20260831223055 | 84 | 215 | 2.0 | 8.0 | 0.00 | 0.00 | 0.00 | 31 | 1009.2 |
| 20260831222849 | 84 | 206 | 1.0 | 11.0 | 0.00 | 0.00 | 0.00 | 32 | 1009.4 |